Regional Weather Roundup
Issued by NWS

Home | Current Version | Previous Version | Text Only | Print | Product List | Glossary On
Versions: 1 2 3 4 5 6 7 8 9 10 11 12 13 14 15 16 17 18 19 20 21 22 23 24 25 26 27 28 29 30 31 32 33 34 35 36 37 38 39 40 41 42 43 44 45 46 47 48 49 50
000
ASUS43 KLOT 221510
RWRIL

ILLINOIS REGIONAL WEATHER ROUNDUP
NATIONAL WEATHER SERVICE CHICAGO/ROMEOVILLE IL
1000 AM CDT TUE JUL 22 2014

NOTE: "FAIR" INDICATES FEW OR NO CLOUDS BELOW 12,000 FEET WITH NO
SIGNIFICANT WEATHER AND/OR OBSTRUCTIONS TO VISIBILITY.

* THESE STATIONS ARE NOT UNDER NWS QUALITY CONTROL. THEY ALSO MAY NOT
  REPORT WEATHER SUCH AS PRECIPITATION OR FOG.

ILZ001-002-007-009-015-016-024-221600-
NORTHWEST ILLINOIS

CITY           SKY/WX    TMP DP  RH WIND       PRES   REMARKS
MOLINE         CLOUDY    79  70  74 SW9       29.97S HX  82
STERLING*      MOSUNNY   82  72  69 SW5       30.00S HX  87
SAVANNA*       MOSUNNY   82  69  65 S9        29.97R HX  85
$$

ILZ003-004-008-010-011-017-018-221600-
NORTH CENTRAL ILLINOIS

CITY           SKY/WX    TMP DP  RH WIND       PRES   REMARKS
ROCKFORD       PTSUNNY   79  69  71 SW15      30.00S HX  81
FREEPORT*      PTSUNNY   76  71  83 S9G17     30.00F
ROCHELLE*      MOSUNNY   79  68  68 SW13G18   30.01F HX  82
DE KALB*       SUNNY     77  69  74 SW14G22   30.01F
PERU*          SUNNY     80  69  68 SW15      30.02S HX  83
$$

ILZ005-006-012>014-019>023-221600-
NORTHEAST ILLINOIS

CITY           SKY/WX    TMP DP  RH WIND       PRES   REMARKS
CHICAGO-OHARE  MOSUNNY   81  64  56 SW12G21   30.00S HX  82
CHICAGO-MIDWAY MOSUNNY   82  66  58 SW16G23   30.01F HX  84
AURORA         SUNNY     81  67  62 S17       30.01S HX  83
LANSING*       SUNNY     78  65  64 S15       30.02F HX  80
JOLIET*        SUNNY     79  66  63 SW8       30.03S HX  81
WAUKEGAN       MOSUNNY   80  66  62 SW17G23   29.98F HX  82
DUPAGE AIRPORT SUNNY     82  68  62 S13       30.01S HX  85
KANKAKEE*      SUNNY     80  69  69 S15       30.05S HX  83
WHEELING       MOSUNNY   83  66  56 SW12G21   30.01S HX  85
MORRIS*        SUNNY     81  70  69 SW13      30.02S HX  84
ROMEOVILLE*    SUNNY     79  66  64 SW12      30.02F HX  81
NORTHERLY ISL    N/A     80  63  55 S9          N/A  HX  81
$$

LMZ740>746-221600-
SOUTHERN LAKE MICHIGAN

STATION/POSITION SKY/WX   TEMP    WIND        PRES    VSBY  WAVE
                          AIR SEA DIR/SP/G                  HT/PER
                          (F)     (DEG/KT/KT) (MB)    (MI)  (FT/S)
SOUTHERN BUOY              70 68  190/ 16/ 17 1015.6R         2/ 3
WAUKEGAN HARBOR            79     230/ 20/ 24 1015.9F
HARRISON CRIB              76     210/ 19/ 26   N/A
BURNHAM HARBOR             80     210/  6/ 19   N/A
CALUMET HARBOR             78     210/ 12/ 17 1015.2R
BURNS HARBOR               75     190/ 14/ 22 1017.9
MICHIGAN CITY              76     170/ 12/ 17   N/A
$$

ILZ025>027-034>036-040-047-049-050-058-095>099-221600-
WEST-CENTRAL ILLINOIS

CITY           SKY/WX    TMP DP  RH WIND       PRES   REMARKS
QUINCY         PTSUNNY   75  69  81 CALM      30.07R
GALESBURG*     CLOUDY    74  70  87 S7G17     30.01F
MACOMB*        TSTM      71  69  95 SW10      30.03F
JACKSONVILLE*  MOSUNNY   82  71  71 SW9       30.08R HX  86
PITTSFIELD*    MOSUNNY   78  69  73 SW8       30.08R HX  80
$$

ILZ028>032-037-038-041>044-048-051>054-059>061-221600-
CENTRAL ILLINOIS

CITY           SKY/WX    TMP DP  RH WIND       PRES   REMARKS
PONTIAC        SUNNY     81  72  74 SW14      30.04S HX  84
BLOOMINGTON    SUNNY     78  68  71 S14       30.07F HX  80
PEORIA         MOSUNNY   83  69  62 SW14      30.04R HX  86
LACON*         SUNNY     80  69  68 SW10G18   30.02R HX  83
LINCOLN*       SUNNY     82  69  66 SW5       30.05R HX  85
SPRINGFIELD    SUNNY     81  69  67 SW10      30.07S HX  84
TAYLORVILLE    SUNNY     77  70  78 S9        30.08F
$$

ILZ033-039-045-046-055>057-062-063-221600-
EAST-CENTRAL ILLINOIS

CITY           SKY/WX    TMP DP  RH WIND       PRES   REMARKS
CHAMPAIGN      SUNNY     79  68  69 SW10      30.09S HX  81
RANTOUL*       SUNNY     80  66  63 S9        30.08F HX  82
MATTOON        SUNNY     78  67  68 S9        30.09F HX  80
PARIS*         SUNNY     79  70  74 SW6       30.11R HX  82
$$

ILZ079-100>102-221600-
SOUTHWEST ILLINOIS

CITY           SKY/WX    TMP DP  RH WIND       PRES   REMARKS
ALTON          SUNNY     79  72  78 S7        30.10R HX  82
CAHOKIA*       SUNNY     80  68  66 VRB5      30.09R HX  83
SPARTA*        SUNNY     79  68  69 S6        30.10S HX  81
$$

ILZ064>066-069>071-074>076-080>082-084>086-088>090-092>094-221600-
SOUTH-CENTRAL ILLINOIS

CITY           SKY/WX    TMP DP  RH WIND       PRES   REMARKS
CARBONDALE     SUNNY     79  68  69 VRB5      30.11R HX  81
CAIRO*         SUNNY     83  69  63 CALM      30.09S HX  86
MARION         SUNNY     81  70  69 CALM      30.11S HX  84
MT. VERNON     SUNNY     81  66  61 SW7       30.11S HX  83
CENTRALIA*     SUNNY     84  65  53 S7        30.10S HX  85
SALEM*         SUNNY     82  68  62 SW6       30.10F HX  84
METROPOLIS*    SUNNY     83  64  52 CALM      30.09R HX  84
$$

ILZ067-068-072-073-078-083-087-091-221600-
SOUTHEAST ILLINOIS

CITY           SKY/WX    TMP DP  RH WIND       PRES   REMARKS
FLORA*         SUNNY     79  68  67 S3        30.10F HX  81
FAIRFIELD*     SUNNY     82  72  69 CALM      30.10S HX  87
HARRISBURG*    SUNNY     80  70  70 CALM      30.10F HX  84
ROBINSON*      SUNNY     83  71  69 SW5       30.11S HX  87
CARMI*         SUNNY     83  72  69 CALM      30.09F HX  88
$$

ABBREVIATIONS USED IN REMARKS
   TC - TEMPERATURE IN CELSIUS
  WCI - WIND CHILL INDEX
   HX - HEAT INDEX
  VSB - VISIBILITY
$$



USA.gov is the U.S. government's official web portal to all federal, state and local government web resources and services.